Flag for Poland Past Weather in Jastrzębie Zdrój, Poland — Yesterday and Last 2 Weeks

Now
65 °F

Fog.


Feels Like: 65 °F
Forecast: 63 / 83 °F
Wind: N/A

Location: Ostrava / Mosnov

Current Time: Jul 25, 2016 at 6:24:57 AM

Latest Report: Jul 25, 2016 at 5:00 AM


Visibility: 4 mi

Pressure: 30.05 "Hg

Humidity: 92%

Dew Point: 63 °F

Location of Jastrzębie ZdrójLocation

Past Weather in Jastrzębie Zdrój — Graph

°F

Jastrzębie Zdrój Temperature Yesterday

Maximum temperature yesterday: 83 °F (at 6:00 PM)
Minimum temperature yesterday: 60 °F (at 5:00 AM)
Average temperature yesterday: 71 °F

High & Low Weather Summary for the Past Weeks

 TemperatureHumidityPressure
High92 °F (Jul 11, 4:00 PM)100% (Jul 13, 4:00 AM)30.22 "Hg (Jul 13, 4:00 AM)
Low52 °F (Jul 10, 5:00 AM)38% (Jul 11, 4:00 PM)29.65 "Hg (Jul 14, 10:00 AM)
Average68 °F76%30.01 "Hg
* Reported Jul 10 5:00 AM — Jul 25 5:00 AM, Jastrzębie Zdrój, Weather by CustomWeather, © 2016

Note: Actual official high and low records may vary slightly from our data, if they occured in-between our weather recording intervals... More about our weather records

Advertising

Jastrzębie Zdrój Weather History for the Previous 24 Hours

Scroll right to see more
 ConditionsComfort  
Time TempWeatherWind HumidityBarometerVisibility
5:00 AM
Mon, Jul 25
65 °FFog.N/A92%30.05 "Hg4 mi
4:00 AM65 °FFog.1 mph94%30.04 "Hg6 mi
3:00 AM67 °FFog.N/A93%30.04 "Hg6 mi
2:00 AM67 °FOvercast.N/A93%30.04 "Hg7 mi
1:00 AM68 °FPassing clouds.2 mph91%30.04 "Hg9 mi
12:00 AM69 °FOvercast.N/A91%30.05 "Hg9 mi
11:00 PM
Sun, Jul 24
70 °FSprinkles. Overcast.2 mph92%30.04 "Hg9 mi
10:00 PM73 °FSprinkles. Overcast.2 mph76%30.04 "Hg12 mi
9:00 PM76 °FPassing clouds.5 mph66%30.02 "Hg12 mi
8:00 PM79 °FPartly sunny.2 mph65%30.00 "Hg19 mi
7:00 PM80 °FPartly sunny.N/A56%29.99 "Hg12 mi
6:00 PM83 °FScattered clouds.3 mph53%29.99 "Hg12 mi
5:20 PM82 °FScattered clouds.5 mph53%30.01 "Hg16 mi
4:00 PM83 °FScattered clouds.N/A57%30.01 "Hg16 mi
3:00 PM82 °FScattered clouds.N/A56%30.03 "Hg16 mi
2:00 PM79 °FPartly sunny.N/A60%30.05 "Hg16 mi
1:00 PM77 °FPartly sunny.3 mph68%30.06 "Hg11 mi
12:00 PM74 °FOvercast.3 mph70%30.07 "Hg9 mi
11:00 AM71 °FOvercast.2 mph83%30.07 "Hg6 mi
10:00 AM68 °FFog.N/A79%30.07 "Hg6 mi
9:00 AM66 °FFog.N/A86%30.07 "Hg5 mi
8:00 AM65 °FFog.N/A92%30.08 "Hg4 mi
7:00 AM64 °FFog.2 mph92%30.06 "Hg4 mi
6:00 AM61 °FFog.N/A91%30.07 "Hg5 mi
Weather by CustomWeather, © 2016

See weather overviewHow to use our weather pages